Cloud_Cover
98 23 57 75 24 20 22 23 24 25 27 31 34 30 76 34 2 0 0 0 0 0 0 0 0 0 0 4 0 0 5 5 5 5 4 5 5 5 4 3 3 5 2 4 26
100 100 48 36 24 24 17 19 20 24 29 77 65 70 29 100 0 0 0 0 0 0 0 0 0 0 0 5 1 0 2 5 5 5 5 14 5 5 5 5 0 5 5 1 10
100 23 22 22 23 18 23 15 13 24 27 53 99 57 3 17 0 0 0 0 0 0 0 0 0 0 0 0 1 0 0 5 5 5 49 5 5 5 5 5 3 5 5 1 1
34 18 20 17 14 19 18 19 14 26 30 87 100 15 20 0 0 0 0 0 0 0 0 0 0 0 0 0 0 0 0 0 0 5 5 5 5 43 26 84 4 2 5 0 0
26 21 22 21 20 19 23 16 23 30 57 43 87 4 2 0 0 0 0 0 0 0 0 0 0 0 0 0 0 0 4 2 0 5 3 5 8 5 32 18 3 2 0 3 0
20 18 24 24 25 20 25 26 42 91 69 63 16 0 0 0 0 0 0 0 0 0 0 0 0 0 0 0 0 0 4 3 0 5 5 54 14 37 46 5 5 12 3 0 0
0 8 11 11 19 20 19 83 100 100 52 83 22 0 0 0 0 0 0 0 0 0 0 0 0 0 0 0 0 0 5 0 0 0 5 91 98 5 42 56 50 6 6 4 0
5 4 8 16 38 73 100 100 100 100 53 100 23 0 0 0 0 0 0 0 0 0 0 0 0 0 0 0 0 0 3 0 0 0 11 79 97 86 41 99 70 25 98 54 0
0 4 14 39 86 98 100 49 74 55 95 34 5 0 0 0 0 0 0 0 0 0 0 0 0 0 0 0 0 0 4 0 0 0 12 96 17 45 63 54 12 100 100 98 5
0 0 1 12 8 82 57 80 26 1 4 0 0 0 0 0 0 0 0 0 0 0 0 0 0 0 0 0 0 0 1 0 0 0 0 44 100 63 5 5 5 63 79 53 64
0 0 9 4 4 94 14 0 0 0 0 0 0 0 0 0 0 0 0 0 0 0 0 1 0 0 0 0 0 0 0 0 0 0 0 0 35 100 79 20 79 100 100 52 96
0 0 12 17 4 46 6 0 0 0 0 0 0 0 1 0 0 0 0 0 0 0 3 5 0 5 2 0 0 0 0 0 0 0 0 0 0 4 100 82 10 100 100 83 98
0 0 0 0 1 33 0 0 0 0 0 0 0 0 5 2 2 0 3 3 5 5 4 8 22 5 5 0 0 3 5 4 1 0 0 0 0 0 0 98 90 73 67 97 24
0 0 0 62 0 0 0 0 0 0 0 1 3 0 5 5 5 5 5 5 5 5 4 5 8 5 1 1 1 4 27 2 0 0 0 0 0 0 0 0 60 100 100 99 100
0 10 38 100 4 0 4 4 0 0 0 0 2 5 5 5 5 5 5 5 5 5 5 5 5 5 5 5 2 6 5 5 5 0 0 3 0 0 0 0 0 0 96 100 100
5 20 100 49 36 1 0 0 0 4 4 4 5 4 5 5 5 5 45 71 70 68 10 8 8 5 4 5 4 6 29 6 5 2 0 44 2 0 0 0 0 0 4 88 99
0 31 80 0 0 0 2 5 5 18 8 25 5 5 5 5 5 5 2 2 13 16 5 6 5 5 2 4 5 5 52 22 5 5 0 5 2 0 0 0 0 0 0 4 23
0 2 8 4 5 5 5 5 5 7 5 40 5 5 5 11 5 5 5 5 5 5 28 5 5 5 4 0 2 5 5 15 5 5 5 0 4 0 0 3 0 0 0 0 63
5 5 5 5 5 5 5 6 6 26 5 5 5 5 24 95 85 44 23 25 9 5 5 5 5 5 2 0 1 5 5 5 5 5 5 4 7 6 0 0 0 0 0 0 0
5 5 5 5 5 5 5 10 59 5 10 18 13 5 5 5 55 64 5 5 5 6 35 10 13 5 3 2 0 0 0 0 2 5 5 5 28 100 3 0 0 0 0 0 0
5 5 5 5 5 5 5 5 61 41 5 5 5 5 5 5 5 6 5 5 5 5 5 5 5 3 12 5 0 0 3 2 0 0 0 0 90 31 12 5 8 3 4 0 0
5 4 2 5 5 5 5 67 90 99 25 39 26 12 34 35 23 7 6 6 5 5 5 5 5 0 0 0 0 0 0 0 0 0 5 5 78 2 5 5 96 7 5 5 0
2 2 2 0 0 4 5 5 5 19 61 5 13 11 43 59 48 60 24 43 5 5 5 5 5 5 4 1 0 1 0 0 0 0 1 2 18 0 5 1 52 52 5 5 1
5 5 5 1 0 1 3 5 5 4 5 5 13 49 52 40 25 23 9 7 15 5 5 5 5 5 3 0 5 5 5 2 0 1 5 18 16 0 3 4 12 89 5 5 5
0 0 0 5 5 5 5 8 5 5 4 5 5 5 6 6 45 67 13 13 28 5 5 5 25 23 5 5 5 6 45 33 7 52 8 9 92 0 4 5 76 100 9 5 5
0 0 0 4 5 36 28 56 48 7 5 8 43 5 5 50 96 86 100 99 74 48 5 5 5 31 22 5 85 5 5 74 90 88 83 49 98 9 5 5 13 5 5 5 5
0 2 5 5 6 68 62 76 65 42 5 5 5 12 5 29 5 25 23 41 67 100 78 7 5 5 10 19 5 75 96 5 5 34 79 34 99 5 45 15 5 5 72 10 5